Vorticity
2 5 9 5 3 3 3 5 5 4 3 3 3 3 4 4 5 5 6 5 5 3 3 3 6 7 9 6 6 8 7 7 1 -0 3 3 1 4 5 4 5 4 4
10 6 7 4 6 6 3 3 4 3 3 3 3 2 3 3 3 4 4 6 6 5 4 3 4 5 6 7 8 7 8 8 7 3 3 2 2 7 7 5 4 5 5
6 6 6 5 5 5 4 3 4 4 3 3 4 3 3 2 2 2 3 3 4 6 5 4 3 2 3 6 8 8 8 8 8 8 6 5 5 6 6 6 8 6 5
6 6 5 5 5 8 8 7 5 3 2 3 3 3 4 3 2 3 2 3 3 3 5 6 4 3 3 3 3 7 9 10 9 8 8 9 9 7 5 6 6 7 6
5 5 4 4 3 4 4 4 5 9 7 5 4 4 3 2 3 3 3 4 4 3 3 4 6 6 4 3 3 3 4 8 10 9 9 9 8 13 6 7 8 6 5
4 5 4 4 4 3 4 6 6 6 6 7 6 7 4 4 4 4 4 5 5 3 2 2 2 5 5 5 4 3 3 3 6 9 9 10 12 8 7 5 5 2 7
6 6 4 2 3 4 3 4 4 5 5 5 7 6 4 3 4 4 4 3 2 2 2 3 3 2 2 4 5 6 3 3 3 4 6 8 10 10 8 8 7 6 5
4 4 4 4 4 5 7 5 4 3 3 4 4 5 6 7 6 5 3 3 4 4 4 3 4 3 3 3 3 4 5 5 3 3 3 4 9 9 8 7 9 9 9
4 3 4 5 6 4 3 4 6 5 4 3 3 3 4 5 6 7 8 6 7 5 5 4 6 5 4 4 3 3 4 5 6 4 3 3 4 6 8 8 8 8 7
4 5 5 3 4 5 6 4 4 5 7 8 9 10 10 9 8 8 7 7 6 6 6 6 4 5 7 5 4 3 3 3 4 5 5 4 3 3 4 6 7 7 7
5 4 4 6 6 5 4 5 7 9 8 8 7 6 6 6 6 6 6 7 9 10 10 6 8 5 4 3 5 4 3 3 3 4 4 5 5 4 3 4 5 6 6
4 6 7 5 4 5 7 8 8 7 7 6 5 5 5 5 4 6 5 5 5 5 6 6 7 8 7 8 7 4 5 3 3 3 4 4 4 6 5 3 3 4 5
6 5 5 6 7 8 8 7 7 6 6 6 5 5 5 5 4 4 4 4 4 4 5 5 5 5 5 7 7 8 7 6 5 4 4 3 3 4 6 5 5 4 3
6 5 6 7 7 6 6 6 5 5 5 4 4 4 4 4 5 5 5 5 5 5 4 4 5 5 5 6 4 8 9 6 6 5 6 7 6 6 5 4 5 5 4
5 6 6 6 5 6 6 6 5 4 5 5 5 5 5 7 8 8 9 10 9 9 9 8 7 6 6 6 6 1 4 7 2 18 5 7 8 4 5 4 5 5 5
4 6 6 5 6 6 4 4 5 5 4 4 5 8 11 12 12 12 11 10 11 11 11 10 10 10 10 9 7 7 6 1 3 4 6 1 5 3 3 6 3 3 5
5 6 6 5 5 4 4 4 4 4 4 7 12 13 11 9 8 9 9 9 9 9 8 8 10 10 11 11 10 10 9 8 7 3 -5 10 5 4 0 6 3 5 9
6 8 7 5 5 5 5 6 5 5 13 14 12 10 9 10 9 9 9 9 11 12 13 13 11 10 11 11 11 11 11 11 10 9 8 5 1 1 -1 11 3 6 13
6 5 5 6 5 5 6 5 10 16 11 9 9 9 8 6 5 5 5 7 9 12 14 13 16 16 14 14 13 13 13 13 13 13 12 12 11 10 9 1 3 11 15
6 5 5 5 6 5 5 13 13 9 8 7 7 6 5 4 5 6 9 11 12 13 13 15 12 15 17 17 17 14 15 15 13 12 13 14 13 11 9 11 10 4 -4
6 6 6 5 5 6 14 10 8 7 6 7 6 5 5 6 8 9 11 12 13 14 14 15 17 13 15 16 15 17 19 18 17 15 14 14 15 14 15 17 15 19 18
7 4 5 6 10 14 8 8 7 5 6 5 5 6 8 9 11 13 13 13 12 11 10 10 11 11 11 11 13 14 16 15 17 19 17 15 16 18 16 19 20 17 5
9 13 15 13 9 9 8 7 5 5 5 5 5 8 10 12 13 12 12 14 15 13 10 9 8 8 7 6 6 5 8 4 8 10 13 19 14 10 16 10 5 16 3
12 8 10 15 10 8 5 4 4 4 3 2 9 12 13 14 13 11 12 11 8 9 11 11 11 10 10 12 11 8 8 7 6 6 8 10 8 5 6 5 6 10 20
13 12 9 8 7 4 4 3 3 3 7 13 12 11 12 11 11 11 10 9 9 9 7 6 7 9 11 11 11 13 11 9 6 5 4 8 10 13 16 13 10 6 6
9 9 7 4 4 3 3 3 6 11 13 12 11 11 11 10 9 9 9 9 9 10 8 7 7 7 8 8 10 11 12 14 11 8 8 8 11 12 13 13 12 11 11
Height
3189 3190 3191 3192 3193 3193 3193 3193 3193 3193 3192 3192 3192 3191 3190 3190 3189 3188 3187 3186 3184 3183 3182 3181 3180 3178 3177 3176 3175 3175 3174 3175 3175 3175 3175 3175 3175 3175 3175 3175 3176 3176 3177
3189 3190 3191 3193 3193 3193 3194 3193 3193 3193 3192 3192 3192 3191 3191 3190 3189 3188 3188 3187 3185 3184 3183 3182 3181 3179 3178 3177 3176 3175 3175 3174 3174 3174 3174 3174 3174 3174 3174 3174 3175 3175 3175
3189 3190 3191 3192 3193 3193 3193 3193 3193 3193 3192 3192 3192 3192 3191 3190 3190 3189 3188 3187 3186 3185 3183 3182 3181 3180 3179 3178 3177 3176 3174 3173 3173 3172 3173 3173 3173 3174 3174 3173 3173 3174 3175
3189 3190 3191 3192 3192 3192 3192 3192 3192 3192 3192 3192 3191 3191 3190 3190 3189 3189 3187 3186 3186 3185 3184 3183 3182 3180 3179 3178 3177 3176 3175 3174 3172 3171 3171 3171 3172 3172 3172 3172 3172 3172 3173
3189 3190 3191 3191 3192 3192 3192 3191 3191 3191 3191 3191 3190 3189 3189 3188 3188 3187 3186 3185 3184 3183 3182 3182 3181 3180 3179 3178 3177 3176 3175 3173 3172 3171 3171 3171 3170 3169 3169 3170 3170 3171 3171
3189 3190 3190 3191 3191 3191 3190 3190 3189 3189 3189 3189 3188 3187 3187 3186 3186 3185 3185 3184 3183 3182 3181 3180 3180 3179 3178 3177 3176 3175 3174 3173 3171 3170 3170 3169 3170 3169 3168 3168 3168 3169 3169
3188 3189 3189 3189 3189 3189 3189 3188 3187 3187 3186 3185 3185 3185 3184 3184 3183 3182 3182 3181 3181 3180 3179 3179 3178 3177 3176 3175 3174 3173 3172 3171 3170 3169 3168 3168 3167 3167 3166 3166 3166 3166 3166
3187 3187 3188 3188 3188 3187 3187 3186 3185 3184 3184 3183 3182 3181 3181 3180 3180 3179 3178 3178 3177 3177 3176 3176 3175 3174 3174 3173 3172 3171 3170 3169 3168 3167 3167 3166 3166 3165 3164 3164 3164 3164 3165
3186 3186 3187 3187 3187 3186 3185 3184 3183 3182 3181 3180 3179 3179 3177 3176 3176 3175 3175 3174 3173 3172 3172 3171 3171 3170 3170 3169 3169 3168 3168 3167 3166 3165 3164 3164 3163 3163 3163 3162 3162 3161 3162
3185 3185 3185 3185 3185 3184 3183 3182 3181 3179 3178 3177 3176 3175 3173 3172 3171 3171 3170 3169 3168 3167 3166 3166 3166 3165 3165 3164 3164 3165 3164 3164 3164 3162 3162 3161 3161 3160 3160 3159 3159 3159 3159
3183 3183 3183 3183 3182 3181 3180 3179 3177 3176 3175 3173 3172 3171 3170 3169 3167 3166 3165 3164 3163 3162 3161 3161 3160 3160 3159 3159 3159 3159 3159 3160 3159 3159 3158 3158 3157 3157 3157 3156 3156 3156 3156
3181 3181 3181 3180 3179 3178 3177 3176 3174 3173 3172 3170 3168 3168 3166 3164 3163 3162 3160 3159 3158 3157 3156 3155 3154 3154 3153 3153 3153 3153 3153 3153 3154 3154 3154 3154 3153 3153 3153 3152 3153 3152 3152
3178 3178 3178 3177 3176 3175 3174 3173 3171 3169 3168 3167 3165 3163 3162 3160 3158 3157 3155 3153 3152 3151 3150 3149 3148 3147 3146 3146 3146 3146 3146 3147 3147 3148 3148 3148 3148 3148 3148 3148 3148 3148 3148
3175 3175 3174 3173 3173 3172 3171 3170 3168 3166 3164 3162 3160 3158 3157 3155 3153 3152 3149 3147 3146 3144 3143 3141 3140 3140 3139 3139 3139 3139 3138 3139 3140 3140 3142 3142 3142 3142 3142 3142 3142 3142 3142
3172 3171 3171 3170 3169 3169 3167 3166 3164 3162 3160 3158 3156 3153 3151 3149 3147 3145 3142 3140 3138 3136 3134 3133 3132 3132 3131 3131 3131 3130 3131 3131 3133 3133 3133 3134 3135 3135 3135 3136 3136 3136 3136
3168 3167 3167 3167 3166 3165 3163 3161 3159 3156 3154 3152 3150 3147 3145 3142 3140 3137 3135 3133 3130 3128 3126 3124 3123 3123 3123 3122 3123 3123 3123 3123 3123 3124 3125 3126 3126 3126 3127 3127 3128 3129 3130
3164 3163 3163 3162 3161 3160 3158 3156 3154 3151 3150 3147 3144 3142 3139 3136 3133 3131 3128 3126 3123 3121 3118 3116 3114 3113 3112 3113 3112 3113 3113 3114 3114 3115 3115 3117 3117 3118 3118 3119 3119 3120 3121
3160 3160 3159 3157 3156 3155 3153 3151 3149 3146 3144 3141 3139 3136 3133 3131 3128 3125 3122 3119 3117 3114 3111 3108 3106 3104 3102 3101 3101 3102 3103 3103 3104 3105 3106 3108 3109 3109 3110 3110 3111 3111 3112
3156 3155 3155 3154 3152 3151 3148 3146 3143 3140 3138 3135 3133 3131 3128 3125 3122 3119 3115 3112 3109 3106 3103 3100 3099 3096 3095 3094 3091 3091 3092 3093 3094 3095 3096 3097 3098 3099 3098 3099 3100 3101 3101
3151 3150 3150 3149 3147 3145 3143 3140 3138 3135 3133 3131 3128 3125 3121 3118 3115 3112 3108 3105 3102 3099 3096 3094 3091 3089 3086 3085 3084 3083 3083 3083 3084 3085 3086 3087 3087 3086 3085 3086 3088 3090 3091
3146 3145 3144 3142 3141 3139 3137 3135 3133 3130 3127 3124 3122 3119 3116 3113 3109 3105 3101 3098 3094 3091 3089 3087 3086 3083 3082 3078 3075 3076 3075 3076 3075 3074 3075 3076 3076 3076 3077 3078 3078 3079 3079
3141 3140 3138 3137 3135 3134 3132 3130 3127 3125 3123 3120 3117 3113 3109 3105 3102 3099 3095 3092 3089 3086 3083 3081 3079 3078 3075 3072 3070 3068 3067 3070 3067 3067 3067 3067 3067 3068 3067 3068 3067 3067 3066
3136 3134 3133 3132 3130 3129 3126 3124 3122 3120 3117 3114 3111 3107 3103 3099 3096 3093 3090 3087 3085 3082 3079 3076 3074 3072 3071 3067 3064 3062 3060 3058 3060 3062 3061 3060 3060 3060 3060 3060 3059 3059 3058
3130 3129 3128 3127 3126 3123 3122 3120 3118 3115 3113 3109 3106 3102 3098 3094 3090 3088 3086 3083 3081 3078 3075 3073 3070 3068 3066 3065 3061 3057 3054 3052 3049 3050 3056 3055 3054 3054 3055 3055 3049 3051 3051
3125 3125 3124 3123 3121 3119 3117 3115 3113 3110 3107 3103 3099 3096 3092 3089 3087 3084 3082 3079 3077 3074 3071 3069 3066 3064 3061 3060 3058 3056 3052 3049 3045 3041 3039 3047 3048 3047 3046 3042 3044 3043 3042
3123 3122 3120 3119 3117 3115 3113 3111 3108 3105 3101 3098 3095 3091 3087 3084 3081 3079 3077 3074 3072 3070 3067 3065 3062 3059 3057 3054 3052 3050 3048 3046 3043 3039 3035 3034 3039 3041 3036 3035 3033 3032 3031